Location: Prairie State College
(41.5244°N, 87.6382°W)
Time: 12:03:30
(UTC-06:00)

Cosmos 1140 Rocket - Visible Passes

Search period start: 18 January 2018 00:00
Search period end: 28 January 2018 00:00
Orbit: 745 x 767 km, 74.1° (Epoch: 17 January)

Date Brightness Start Highest point End Pass type
(mag) Time Alt. Az. Time Alt. Az. Time Alt. Az.
18 Jan 6.0 03:45:22 11° SE 03:48:25 18° E 03:51:46 10° NE visible
18 Jan 3.5 05:25:42 16° SW 05:29:44 53° WNW 05:34:46 10° N visible
19 Jan 3.4 04:48:36 72° S 04:49:07 83° ESE 04:54:17 10° NNE visible
19 Jan 5.1 06:29:05 10° W 06:31:37 14° NW 06:34:09 10° NNW visible
20 Jan 4.9 04:10:17 33° ENE 04:10:17 33° ENE 04:13:29 10° NNE visible
20 Jan 4.5 05:50:23 23° WNW 05:50:38 23° WNW 05:54:43 10° N visible
21 Jan 6.2 03:31:28 14° NE 03:31:28 14° NE 03:32:18 10° NE visible
21 Jan 4.4 05:11:32 30° NNW 05:11:32 30° NNW 05:14:38 10° N visible
22 Jan 5.2 04:32:26 22° NNE 04:32:26 22° NNE 04:34:16 10° NNE visible
22 Jan 5.4 06:12:29 10° NW 06:12:29 10° NW 06:12:44 10° NW visible
23 Jan 6.0 03:53:08 13° NNE 03:53:08 13° NNE 03:53:37 10° NNE visible
23 Jan 5.4 05:33:11 14° NNW 05:33:11 14° NNW 05:34:18 10° NNW visible
24 Jan 5.6 04:53:46 13° N 04:53:46 13° N 04:54:27 10° N visible
